DW1437 Weather Reports


time (UTC)temp
C
wind
direction
speed
KPH
gust
KPH
rain 1hr
cm
rain 24hr
cm
rain mn
cm
humidity
%
barometer
mb
20260502230006 9 266 0.0 0.0 0.00 1.30 1.30 94 1010.2
20260502225014 10 266 0.0 3.2 0.00 1.30 1.30 94 1010.1
20260502224033 10 266 0.0 3.2 0.00 1.30 1.30 94 1010.1
20260502223054 9 285 0.0 0.0 0.00 1.30 1.30 94 1010.1
20260502222027 9 285 0.0 0.0 0.00 1.30 1.30 94 1010.1
20260502215855 10 227 0.0 0.0 0.00 1.27 1.27 94 1010.4
20260502213731 10 227 0.0 0.0 0.00 1.27 1.27 94 1010.5
20260502212656 10 227 0.0 0.0 0.00 1.27 1.27 94 1010.6
20260502211626 10 223 0.0 3.2 0.00 1.24 1.27 94 1010.7
20260502210601 10 238 0.0 3.2 0.00 1.24 1.24 93 1010.8
20260502205544 10 238 0.0 0.0 0.00 1.24 1.24 93 1010.8
20260502204528 10 238 1.6 3.2 0.08 1.24 1.24 93 1010.9
20260502202434 10 41 0.0 0.0 0.08 1.22 1.22 93 1010.9
20260502195209 10 291 0.0 6.4 0.10 1.12 1.12 93 1011.0
20260502194158 10 5 0.0 1.6 0.28 1.12 1.12 93 1010.9
20260502193200 10 330 0.0 0.0 0.33 1.04 1.04 92 1011.0
20260502192141 11 294 3.2 9.7 0.43 0.97 0.99 92 1010.9
20260502190023 11 291 0.0 0.0 0.36 0.84 0.86 92 1011.1
20260502181707 12 277 0.0 0.0 0.08 0.43 0.43 91 1010.9
20260502180634 12 300 0.0 4.8 0.08 0.43 0.43 90 1011.1
20260502163359 13 49 0.0 0.0 0.69 0.20 0.20 84 1012.6
20260502162331 15 49 0.0 0.0 0.74 0.08 0.08 80 1012.6
20260502161338 15 49 0.0 0.0 0.00 0.03 0.00 77 1012.4
20260502160321 16 47 0.0 0.0 0.00 0.03 0.00 75 1012.4
20260502151040 16 48 0.0 0.0 0.00 0.03 0.00 72 1012.7
20260502130543 16 157 0.0 4.8 0.00 0.15 0.00 68 1014.2
20260502123357 16 305 1.6 8.0 0.00 0.15 0.00 68 1014.8
20260502122339 16 108 0.0 6.4 0.00 0.15 0.00 69 1015.0
20260502121320 15 167 0.0 11.3 0.00 0.15 0.00 70 1015.1
20260502120312 15 232 1.6 11.3 0.00 0.15 0.00 70 1015.2
20260502115319 15 119 3.2 9.7 0.00 0.15 0.00 70 1015.3
20260502114306 15 276 1.6 9.7 0.00 0.15 0.00 71 1015.6
20260502113329 15 224 1.6 9.7 0.00 0.15 0.00 74 1015.7
20260502112255 15 232 3.2 9.7 0.00 0.15 0.00 73 1015.9
20260502104931 14 239 0.0 9.7 0.00 0.15 0.00 75 1016.1
20260502103911 14 208 1.6 9.7 0.00 0.15 0.00 77 1016.2
20260502102912 14 96 1.6 8.0 0.00 0.15 0.00 78 1016.4
20260502100655 14 181 1.6 9.7 0.00 0.15 0.00 80 1016.5
20260502091313 12 272 1.6 4.8 0.00 0.15 0.00 93 1016.9
20260502090246 11 217 0.0 1.6 0.00 0.15 0.00 95 1017.1
20260502080109 9 212 0.0 3.2 0.00 0.15 0.00 97 1017.5
20260502070914 8 263 0.0 0.0 0.00 0.15 0.00 97 1017.5
20260502064714 7 244 0.0 0.0 0.00 0.15 0.00 97 1017.6
20260502063722 6 244 0.0 0.0 0.00 0.15 0.00 97 1017.7
20260502062743 6 244 0.0 0.0 0.00 0.15 0.00 97 1017.7
20260502060726 5 244 0.0 0.0 0.00 0.15 0.00 96 1017.6
20260502055653 5 244 0.0 0.0 0.00 0.15 0.00 96 1017.4
20260502054649 4 244 0.0 0.0 0.00 0.15 0.00 95 1017.5
20260502052519 5 244 0.0 0.0 0.00 0.15 0.00 96 1017.5
20260502050328 5 244 0.0 0.0 0.00 0.15 0.00 95 1017.5
20260502045330 5 244 0.0 0.0 0.00 0.15 0.00 95 1017.5
20260502043237 5 244 0.0 0.0 0.00 0.15 0.00 95 1017.5
20260502042242 5 244 0.0 0.0 0.00 0.15 0.00 96 1017.6
20260502041239 5 244 0.0 0.0 0.00 0.15 0.00 95 1017.6
20260502040220 6 248 0.0 0.0 0.00 0.15 0.00 94 1017.8
20260502032835 6 248 0.0 0.0 0.00 0.15 0.00 94 1017.9
20260502025559 7 248 0.0 3.2 0.00 0.15 0.00 96 1018.1
20260502024608 7 284 0.0 0.0 0.00 0.15 0.00 96 1017.9
20260502022443 6 284 0.0 0.0 0.00 0.15 0.00 95 1018.1
20260502021447 6 284 0.0 0.0 0.00 0.15 0.00 94 1018.1
20260502020432 7 283 0.0 0.0 0.00 0.13 0.00 94 1018.2
20260502015401 8 283 0.0 0.0 0.00 0.13 0.00 95 1018.2
20260502014409 8 283 0.0 3.2 0.00 0.13 0.00 95 1018.3
20260502013432 7 345 0.0 0.0 0.00 0.13 0.00 95 1018.4
20260502011250 7 346 0.0 0.0 0.00 0.13 0.00 96 1018.6
20260502010307 7 346 0.0 0.0 0.00 0.13 0.00 95 1018.7
20260502005236 6 346 0.0 0.0 0.00 0.13 0.00 95 1018.8
20260502004203 7 346 0.0 0.0 0.00 0.13 0.00 95 1018.9
20260502003211 6 346 0.0 0.0 0.00 0.13 0.00 95 1018.9
20260502002212 6 346 0.0 0.0 0.00 0.13 0.00 94 1019.0
20260502000105 7 275 0.0 0.0 0.00 0.13 0.00 95 1019.0
20260501234011 7 275 0.0 0.0 0.00 0.13 0.00 94 1019.1
20260501233009 7 275 0.0 0.0 0.00 0.13 0.00 95 1019.2